Location: Boullarre
(49.1305°N, 3.0047°E)
Time: 20:03:09
(UTC+00:00)

Meteor PRIRODA - Visible Passes

Search period start: 01 October 2023 00:00
Search period end: 11 October 2023 00:00
Orbit: 464 x 477 km, 97.6° (Epoch: 30 September)

Date Brightness Start Highest point End Pass type
(mag) Time Alt. Az. Time Alt. Az. Time Alt. Az.
01 Oct 6.7 19:03:43 10° SW 19:06:00 16° W 19:08:17 10° NW visible
02 Oct 5.5 18:33:56 10° SSW 18:37:09 33° W 18:40:24 10° NNW visible
03 Oct 3.8 18:04:52 10° S 18:08:24 74° WSW 18:11:58 10° NNW visible
04 Oct 6.8 19:11:18 10° WSW 19:13:11 14° W 19:15:05 10° WNW visible
05 Oct 5.8 18:41:10 10° SSW 18:44:14 28° W 18:47:21 10° NW visible
06 Oct 4.1 18:11:54 10° S 18:15:24 61° W 18:18:56 10° NNW visible
07 Oct 3.6 17:43:10 10° SSE 17:46:39 59° ENE 17:50:10 10° N visible
07 Oct 7.0 19:18:50 10° WSW 19:20:10 12° W 19:21:29 10° WNW visible
08 Oct 6.1 18:48:13 10° SSW 18:51:08 24° W 18:54:04 10° NW visible
09 Oct 4.5 18:18:44 10° S 18:22:11 51° W 18:25:41 10° NNW visible
10 Oct 3.5 17:49:50 10° SSE 17:53:21 71° ENE 17:56:54 10° N visible
